COSMOS 1275 DEB, 13488

Orbit data source: Space-Track

COSMOS 1275 DEB, 13488 is space debris in LEO originally from a launch on Thu, 04 Jun 1981 UTC launched from the Plesetsk Missile And Space Complex (PKMTR). Debris objects in space refer to the collection of defunct objects orbiting the Earth. Examples of debris include non-operational satellites, rocket bodies, and fragments generated from explosions, collisions, or faulty payload assembly.

Loading next visibility...
Identifier
13488, 1981-053GJ
Orbit
LEO
Country
Flag of CISCIS
Related business
Manufacturer
Unknown
Mission
Spacecraft
Bus & Motor
Unknown
Mass
Unknown
Launch date (UTC)
1981-06-04 (45 years ago)
Launch vehicle
Unknown
Launch site
Plesetsk Missile And Space Complex (PKMTR)
Object type
Payload
Rocket body
Debris
Shape & HBR
Unknown shape, 0.1 m
Radar Cross Section
Small (<0.1 m²)

Expand to show TLE details & history
Last TLE update: 19 hours ago

TLE from 19 hours ago
0 COSMOS 1275 DEB
1 13488U 81053GJ  26036.85259891  .00000938  00000-0  13208-2 0  9991
2 13488  83.0877 177.9272 0191069 102.8924  47.9438 13.48803026134622
Epoch: 2026-02-05T20:27Z
TLE epoch observation values (Epoch: 2026-02-05T20:27:44.545Z)
Latitude
27.33423°
Longitude
-88.58128°
Altitude
986.076 km
Speed
7.407 km/s
True Right ascension
23h 37m 24s
True Declination
27° 11' 55"
Sunlit
Object was in daylight at epoch
Visualization orbit readout
Latitude
Unknown
Longitude
Unknown
Altitude
Unknown
Speed
Unknown
Apparent Right ascension
Unknown
Apparent Declination
Unknown
Sunlit
N/A
Visualization observer readout
Local Sidereal Time
17:21:29
Azimuth
Unknown
Elevation
Unknown
Doppler factor
Unknown
Orbital elements
Apogee altitude
1,216.228 km
Perigee altitude
931.46 km
Semi-major axis
7,451.981 km
Eccentricity
0.01911
Inclination
83.0877°
RAAN
177.9272°
Arg. of periapsis
102.8924°
True anomaly
49.59565°
Mean anomaly
47.9438°
Eccentric anomaly
48.76709°
Mean motion
3.37393 °/min
Orbital period
106.7 mins
BSTAR
0.0013208
Loading maneuver chart data...
Computing Atmospheric mass density...
Loading historical data...
Loading historical data...
Loading historical data...
Loading historical data...
Loading historical data...
Loading historical data...
Loading historical data...

Documentation

Showing up to 5 results
|